Akron Canton, OH

3:43 PM EDT on July 22, 2017 (GMT -0400)
Akron-Canton Regional

Weather History for KCAK - June, 2013

Change the Weather History Date:

Friday, June 21, 2013

  Actual Average Record
Temperature  
Mean Temperature 78 °F 70 °F  
Max Temperature 85 °F 80 °F 97 °F (1933)
Min Temperature 70 °F 59 °F 42 °F (1963)
Degree Days  
Heating Degree Days 0 1  
Month to date heating degree days 27 44  
Since 1 June heating degree days 27 44  
Since 1 July heating degree days 5829 6145  
Cooling Degree Days 13 5  
Month to date cooling degree days 71 79  
Year to date cooling degree days 177 121  
Since 1 June cooling degree days 71 79  
Growing Degree Days 22 (Base 50)    
Moisture  
Dew Point 55 °F    
Average Humidity 55    
Maximum Humidity 72    
Minimum Humidity 37    
Precipitation  
Precipitation 0.00 in 0.13 in 1.32 in (2011)
Month to date precipitation 3.81 2.68  
Year to date precipitation 16.07 18.41  
Snow  
Snow 0.00 in 0.00 in - ()
Month to date snowfall 0.0 0.0  
Since 1 June snowfall 0.0 0.0  
Since 1 July snowfall 47.2 47.5  
Snow Depth 0.00 in    
Sea Level Pressure  
Sea Level Pressure 30.22 in    
Wind  
Wind Speed 4 mph (South)    
Max Wind Speed 12 mph    
Max Gust Speed 18 mph    
Visibility 9 miles    
Events      
T = Trace of Precipitation, MM = Missing Value Source: NWS Daily Summary

Daily Weather History Graph

Daily Weather History Graph

Search for Another Location

Airport or City:

Trip Planner

Search our weather history database for the weather conditions in past years. The results will help you decide how hot, cold, wet, or windy it might be!

Date:

Astronomy

Jun. 21, 2013 Rise Set
Actual Time 5:54 AM EDT 9:01 PM EDT
Civil Twilight 5:20 AM EDT 9:34 PM EDT
Nautical Twilight 4:37 AM EDT 10:17 PM EDT
Astronomical Twilight 3:46 AM EDT 11:08 PM EDT
Moon 7:09 PM EDT (6/21) 4:08 AM EDT (6/21)
Length of Visible Light 16h 14m
Length of Day
15h 07m
Waxing Gibbous, 95% of the Moon is Illuminated
Jun 21
Waxing Gibbous
Jun 23
Full
Jun 30
Last Quarter
Jul 8
New
Jul 15
First Quarter

Hourly Weather History & Observations

Time (EDT) Temp. Heat Index Dew Point Humidity Pressure Visibility Wind Dir Wind Speed Gust Speed Precip Events Conditions
12:51 AM 66.0 °F - 51.1 °F 59% 30.22 in 10.0 mi ESE 5.8 mph - N/A   Clear
1:51 AM 62.1 °F - 52.0 °F 70% 30.23 in 10.0 mi Calm Calm - N/A   Clear
2:51 AM 63.0 °F - 52.0 °F 67% 30.22 in 10.0 mi Calm Calm - N/A   Clear
3:51 AM 63.0 °F - 52.0 °F 67% 30.22 in 10.0 mi Calm Calm - N/A   Clear
4:51 AM 63.0 °F - 53.1 °F 70% 30.22 in 9.0 mi SSE 3.5 mph - N/A   Clear
5:51 AM 62.1 °F - 53.1 °F 72% 30.23 in 7.0 mi Calm Calm - N/A   Clear
6:51 AM 63.0 °F - 54.0 °F 72% 30.23 in 6.0 mi SE 3.5 mph - N/A   Haze
7:51 AM 66.0 °F - 55.0 °F 68% 30.24 in 7.0 mi SSE 5.8 mph - N/A   Clear
8:51 AM 71.1 °F - 55.9 °F 59% 30.25 in 8.0 mi SSE 6.9 mph - N/A   Partly Cloudy
9:51 AM 73.9 °F - 55.9 °F 53% 30.26 in 8.0 mi SSW 3.5 mph - N/A   Partly Cloudy
10:51 AM 77.0 °F - 55.9 °F 48% 30.25 in 9.0 mi Variable 3.5 mph - N/A   Scattered Clouds
11:55 AM 80.6 °F 80.5 °F 55.4 °F 42% 30.27 in 10.0 mi South 9.2 mph - N/A   Partly Cloudy
12:51 PM 81.0 °F 80.8 °F 55.9 °F 42% 30.26 in 10.0 mi Variable 3.5 mph - N/A   Partly Cloudy
1:51 PM 82.0 °F 81.7 °F 57.0 °F 42% 30.26 in 10.0 mi Variable 4.6 mph - N/A   Partly Cloudy
2:51 PM 84.9 °F 83.7 °F 55.9 °F 37% 30.24 in 10.0 mi West 9.2 mph - N/A   Scattered Clouds
3:51 PM 84.0 °F 82.9 °F 55.0 °F 37% 30.22 in 10.0 mi SW 8.1 mph - N/A   Scattered Clouds
4:51 PM 84.0 °F 83.3 °F 57.0 °F 40% 30.21 in 10.0 mi Variable 5.8 mph - N/A   Scattered Clouds
5:51 PM 84.0 °F 83.3 °F 57.0 °F 40% 30.19 in 10.0 mi SW 5.8 mph - N/A   Scattered Clouds
6:51 PM 82.0 °F 81.7 °F 57.0 °F 42% 30.19 in 10.0 mi SSW 5.8 mph - N/A   Scattered Clouds
7:51 PM 79.0 °F - 59.0 °F 50% 30.18 in 10.0 mi SSW 4.6 mph - N/A   Mostly Cloudy
8:51 PM 77.0 °F - 57.9 °F 52% 30.18 in 10.0 mi South 3.5 mph - N/A   Scattered Clouds
9:51 PM 73.0 °F - 57.9 °F 59% 30.18 in 10.0 mi Calm Calm - N/A   Mostly Cloudy
10:51 PM 73.0 °F - 57.9 °F 59% 30.18 in 10.0 mi SSE 4.6 mph - N/A   Mostly Cloudy
11:51 PM 72.0 °F - 57.9 °F 61% 30.18 in 10.0 mi SSE 5.8 mph - N/A   Scattered Clouds